Location: Quesnel
(52.9830°N, 122.4830°W)
Time: 20:38:11
(UTC-07:00)

ISS - All Passes

Search period start: 24 July 2014 00:00
Search period end: 03 August 2014 00:00
Orbit: 411 x 419 km, 51.6° (Epoch: 24 July)

Date Brightness Start Highest point End Pass type
(mag) Time Alt. Az. Time Alt. Az. Time Alt. Az.
24 Jul - 03:05:19 10° SW 03:08:18 30° SSE 03:11:19 10° E visible
24 Jul - 04:41:24 10° WSW 04:44:45 67° S 04:48:06 10° E daylight
24 Jul - 06:18:02 10° W 06:21:22 58° SSW 06:24:41 10° ESE daylight
24 Jul - 07:55:00 10° W 07:57:41 22° SSW 08:00:21 10° SSE daylight
25 Jul - 02:17:00 10° SSW 02:19:41 22° SSE 02:22:23 10° E visible
25 Jul - 03:52:42 10° WSW 03:56:01 59° SSE 03:59:21 10° E visible
25 Jul - 05:29:17 10° W 05:32:38 67° S 05:35:59 10° ESE daylight
25 Jul - 07:06:04 10° W 07:09:04 30° SSW 07:12:03 10° SE daylight
26 Jul - 01:28:59 10° S 01:31:09 16° SE 01:33:19 10° ESE visible
26 Jul - 03:04:04 10° WSW 03:07:20 48° SSE 03:10:36 10° E visible
26 Jul - 04:40:33 10° W 04:43:55 71° S 04:47:17 10° E daylight
26 Jul - 06:17:16 10° W 06:20:27 39° SSW 06:23:37 10° SE daylight
26 Jul - 07:55:13 10° WSW 07:56:30 12° SW 07:57:47 10° SSW daylight
27 Jul - 00:41:38 10° SSE 00:42:40 11° SE 00:43:43 10° ESE visible
27 Jul - 02:15:34 10° SW 02:18:42 38° SSE 02:21:52 10° E visible
27 Jul - 03:51:52 10° W 03:55:14 71° S 03:58:36 10° E visible
27 Jul - 05:28:32 10° W 05:31:49 50° SSW 05:35:06 10° ESE daylight
27 Jul - 07:05:46 10° WSW 07:08:02 17° SW 07:10:18 10° S daylight
28 Jul - 01:27:11 10° SSW 01:30:08 29° SSE 01:33:06 10° E visible
28 Jul - 03:03:13 10° WSW 03:06:34 66° S 03:09:55 10° E visible
28 Jul - 04:39:51 10° W 04:43:11 60° SSW 04:46:31 10° ESE visible
28 Jul - 06:16:47 10° W 06:19:32 23° SSW 06:22:17 10° SSE daylight
29 Jul - 00:39:02 10° SSW 00:41:38 21° SSE 00:44:16 10° E visible
29 Jul - 02:14:38 10° WSW 02:17:57 57° SSE 02:21:16 10° E visible
29 Jul - 03:51:13 10° W 03:54:34 68° S 03:57:56 10° ESE visible
29 Jul - 05:28:00 10° W 05:31:02 31° SSW 05:34:04 10° SE daylight
29 Jul - 23:51:11 10° S 23:53:13 15° SE 23:55:15 10° ESE visible
30 Jul - 01:26:08 10° SW 01:29:23 46° SSE 01:32:38 10° E visible
30 Jul - 03:02:36 10° W 03:05:58 72° S 03:09:20 10° E visible
30 Jul - 04:39:19 10° W 04:42:31 41° SSW 04:45:43 10° SE visible
30 Jul - 06:17:04 10° WSW 06:18:36 13° SW 06:20:09 10° SSW daylight
30 Jul - 23:04:17 10° SSE 23:04:51 10° SE 23:05:26 10° SE night (unlit)
31 Jul - 00:37:45 10° SW 00:40:52 36° SSE 00:44:00 10° E visible
31 Jul - 02:14:01 10° W 02:17:23 70° S 02:20:45 10° E visible
31 Jul - 03:50:42 10° W 03:54:00 52° SSW 03:57:17 10° ESE visible
31 Jul - 05:27:52 10° W 05:30:14 18° SW 05:32:36 10° S daylight
31 Jul - 23:49:31 10° SSW 23:52:25 27° SSE 23:55:20 10° E visible
01 Aug - 01:25:30 10° WSW 01:28:50 65° S 01:32:11 10° E visible
01 Aug - 03:02:08 10° W 03:05:28 62° S 03:08:48 10° ESE visible
01 Aug - 04:39:02 10° W 04:41:51 25° SSW 04:44:39 10° SSE visible
01 Aug - 23:01:30 10° SSW 23:04:02 20° SSE 23:06:35 10° E night (unlit)
02 Aug - 00:37:02 10° WSW 00:40:20 55° SSE 00:43:39 10° E visible
02 Aug - 02:13:36 10° W 02:16:57 69° S 02:20:19 10° ESE visible
02 Aug - 03:50:22 10° W 03:53:26 33° SSW 03:56:31 10° SE visible
02 Aug - 22:13:50 10° S 22:15:43 14° SE 22:17:37 10° ESE visible
02 Aug - 23:48:39 10° SW 23:51:52 45° SSE 23:55:07 10° E visible
